Flag for Isle of Man Weather past 2 weeks in Ramsey, Isle of Man

54 °F

Passing clouds.

Feels Like: 54 °F
Forecast: 56 / 58 °F
Wind: 2 mph from North

Location: Isle Of Man / Ronaldsway Airport

Current Time: Oct 9, 2015 at 9:20:13 PM

Latest Report: Oct 9, 2015 at 8:50 PM

Visibility: N/A

Pressure: 30.18 "Hg

Humidity: 94%

Dew point: 52 °F

Location of RamseyLocation

Historic Weather in Ramsey — Graph


Ramsey temperature yesterday

Maximum temperature yesterday: 57 °F (at 11:50 AM)
Minimum temperature yesterday: 46 °F (at 5:20 AM)
Average temperature yesterday: 54 °F

Past Weeks' High & Low Weather Summary

High63 °F (Oct 6, 12:50 PM)100% (Sep 26, 11:50 PM)30.63 "Hg (Sep 26, 11:50 PM)
Low43 °F (Oct 3, 5:50 AM)59% (Sep 26, 5:20 PM)29.33 "Hg (Oct 6, 4:50 AM)
Average56 °F83%30.15 "Hg
* Reported Sep 24 8:20 PM — Oct 9 8:20 PM, Ramsey, Weather by CustomWeather, © 2015

Note: Actual official high and low records may vary slightly from our data, if they occured in-between our weather recording intervals... More about our weather records


Ramsey weather history for previous 24 hours

Time TempWeatherWind HumidityBarometerVisibility
8:20 PM
Fri, Oct 9
54 °FPassing clouds.3 mph100%30.18 "HgN/A
7:50 PM54 °FPassing clouds.3 mph100%30.18 "HgN/A
7:20 PM55 °FPassing clouds.3 mph94%30.18 "HgN/A
6:50 PM55 °FPassing clouds.5 mph94%30.18 "HgN/A
6:20 PM55 °FPassing clouds.5 mph94%30.18 "HgN/A
5:50 PM57 °FPartly sunny.5 mph88%30.15 "HgN/A
5:20 PM57 °FPassing clouds.8 mph88%30.15 "HgN/A
4:50 PM57 °FPassing clouds.8 mph88%30.15 "HgN/A
4:20 PM57 °FScattered clouds.8 mph88%30.15 "HgN/A
3:50 PM59 °FPassing clouds.10 mph82%30.15 "HgN/A
3:20 PM57 °FScattered clouds.9 mph88%30.15 "HgN/A
2:50 PM59 °FPartly sunny.10 mph88%30.15 "HgN/A
2:20 PM59 °FPassing clouds.10 mph88%30.15 "HgN/A
1:50 PM59 °FPassing clouds.13 mph88%30.15 "HgN/A
1:20 PM59 °FScattered clouds.10 mph88%30.15 "HgN/A
12:50 PM59 °FPassing clouds.12 mph88%30.15 "HgN/A
12:20 PM57 °FScattered clouds.13 mph94%30.15 "HgN/A
11:50 AM57 °FScattered clouds.13 mph94%30.15 "HgN/A
11:20 AM59 °FScattered clouds.9 mph88%30.15 "HgN/A
10:50 AM59 °FScattered clouds.8 mph88%30.15 "HgN/A
10:20 AM57 °FPassing clouds.8 mph94%30.15 "HgN/A
9:50 AM57 °FPartly sunny.9 mph88%30.15 "HgN/A
9:20 AM57 °FScattered clouds.8 mph94%30.15 "HgN/A
8:50 AM57 °FScattered clouds.9 mph94%30.15 "HgN/A
8:20 AM57 °FPassing clouds.9 mph94%30.12 "HgN/A
7:50 AM55 °FPassing clouds.10 mph100%30.12 "HgN/A
7:20 AM55 °FPartly cloudy.9 mph94%30.12 "HgN/A
6:50 AM55 °FPassing clouds.9 mph94%30.12 "HgN/A
6:20 AM55 °FPassing clouds.10 mph94%30.12 "HgN/A
5:50 AM55 °FPartly cloudy.9 mph94%30.12 "HgN/A
5:20 AM54 °FPassing clouds.7 mph100%30.12 "HgN/A
4:50 AM54 °FPassing clouds.8 mph100%30.12 "HgN/A
3:50 AM54 °FPassing clouds.8 mph94%30.12 "HgN/A
2:50 AM54 °FPassing clouds.6 mph94%30.15 "HgN/A
12:50 AM54 °FPassing clouds.9 mph94%30.15 "HgN/A
11:50 PM
Thu, Oct 8
55 °FPassing clouds.10 mph88%30.15 "HgN/A
10:50 PM55 °FPassing clouds.12 mph88%30.15 "HgN/A
10:20 PM55 °FPassing clouds.10 mph88%30.15 "HgN/A
9:50 PM55 °FPassing clouds.9 mph88%30.15 "HgN/A
9:20 PM55 °FClear.9 mph88%30.15 "Hg10 mi
Weather by CustomWeather, © 2015

See weather overviewHow to use our weather pages